QPF
0.00 0.00 0.00 0.00 0.00 0.00 0.00 0.00 0.00 0.00 0.00 0.00 0.00 0.00 0.00 0.00 0.00 0.00 0.00 0.00 0.00 0.00 0.00 0.00 0.00 0.00 0.00 0.00 0.00 0.00 0.00 0.00 0.00 0.00 0.00 0.00 0.00 0.00 0.02 0.02 0.00 0.00 0.00 0.00 0.01 0.01 0.01 0.00 0.00
0.00 0.00 0.00 0.00 0.00 0.00 0.00 0.00 0.00 0.00 0.00 0.00 0.00 0.00 0.00 0.00 0.00 0.00 0.00 0.00 0.00 0.00 0.00 0.00 0.00 0.00 0.00 0.00 0.00 0.00 0.00 0.00 0.00 0.00 0.00 0.00 0.00 0.01 0.01 0.01 0.00 0.00 0.00 0.01 0.01 0.01 0.00 0.00 0.00
0.00 0.00 0.00 0.00 0.00 0.00 0.00 0.00 0.00 0.00 0.00 0.00 0.00 0.00 0.00 0.00 0.00 0.00 0.00 0.00 0.00 0.00 0.00 0.00 0.00 0.01 0.00 0.00 0.00 0.00 0.00 0.00 0.00 0.00 0.00 0.00 0.00 0.01 0.01 0.02 0.00 0.00 0.00 0.00 0.01 0.00 0.00 0.00 0.00
0.00 0.00 0.00 0.00 0.00 0.00 0.00 0.00 0.00 0.00 0.00 0.00 0.00 0.00 0.00 0.00 0.00 0.00 0.00 0.00 0.00 0.01 0.00 0.00 0.00 0.00 0.00 0.00 0.00 0.00 0.00 0.00 0.00 0.00 0.00 0.00 0.00 0.01 0.02 0.01 0.00 0.00 0.00 0.00 0.00 0.00 0.00 0.00 0.00
0.00 0.00 0.00 0.00 0.00 0.00 0.00 0.00 0.00 0.00 0.00 0.00 0.00 0.00 0.00 0.00 0.01 0.03 0.04 0.01 0.00 0.00 0.01 0.01 0.00 0.00 0.00 0.00 0.00 0.00 0.00 0.00 0.00 0.00 0.00 0.01 0.01 0.02 0.01 0.00 0.00 0.00 0.00 0.00 0.00 0.00 0.00 0.00 0.00
0.00 0.00 0.00 0.00 0.00 0.00 0.00 0.00 0.00 0.00 0.00 0.00 0.00 0.00 0.00 0.06 0.03 0.08 0.16 0.14 0.06 0.00 0.01 0.02 0.01 0.00 0.00 0.00 0.00 0.00 0.00 0.00 0.00 0.00 0.00 0.01 0.01 0.02 0.00 0.00 0.00 0.00 0.00 0.00 0.01 0.00 0.00 0.00 0.00
0.00 0.00 0.00 0.00 0.00 0.00 0.00 0.00 0.00 0.00 0.00 0.00 0.00 0.00 0.00 0.05 0.02 0.06 0.20 0.29 0.24 0.06 0.06 0.05 0.01 0.00 0.00 0.00 0.00 0.00 0.00 0.00 0.00 0.00 0.01 0.01 0.01 0.00 0.00 0.00 0.00 0.00 0.00 0.00 0.00 0.00 0.00 0.00 0.00
0.00 0.00 0.00 0.00 0.00 0.00 0.00 0.00 0.00 0.00 0.00 0.00 0.00 0.00 0.00 0.01 0.01 0.02 0.10 0.32 0.38 0.18 0.08 0.04 0.03 0.00 0.00 0.00 0.00 0.00 0.00 0.00 0.00 0.01 0.01 0.00 0.00 0.00 0.00 0.00 0.00 0.00 0.00 0.00 0.00 0.00 0.00 0.00 0.00
0.00 0.00 0.00 0.00 0.00 0.00 0.00 0.00 0.00 0.00 0.00 0.00 0.00 0.00 0.00 0.00 0.00 0.00 0.13 0.30 0.43 0.34 0.11 0.03 0.02 0.00 0.00 0.00 0.00 0.00 0.00 0.00 0.01 0.01 0.00 0.00 0.00 0.00 0.00 0.00 0.00 0.00 0.00 0.00 0.00 0.00 0.00 0.00 0.00
0.01 0.00 0.00 0.00 0.00 0.00 0.00 0.00 0.00 0.00 0.00 0.00 0.00 0.00 0.00 0.00 0.00 0.00 0.07 0.26 0.34 0.27 0.15 0.02 0.00 0.00 0.00 0.00 0.00 0.00 0.01 0.02 0.02 0.01 0.00 0.00 0.00 0.00 0.00 0.00 0.00 0.00 0.00 0.00 0.00 0.00 0.00 0.00 0.00
0.00 0.00 0.00 0.00 0.00 0.00 0.00 0.00 0.00 0.02 0.00 0.00 0.00 0.00 0.00 0.00 0.00 0.00 0.01 0.13 0.16 0.19 0.10 0.01 0.00 0.00 0.00 0.00 0.00 0.00 0.01 0.01 0.01 0.00 0.00 0.00 0.00 0.00 0.00 0.01 0.00 0.00 0.00 0.00 0.00 0.00 0.00 0.00 0.00
0.00 0.00 0.00 0.00 0.00 0.00 0.00 0.00 0.00 0.00 0.01 0.00 0.00 0.00 0.00 0.00 0.00 0.00 0.00 0.05 0.15 0.26 0.19 0.03 0.00 0.00 0.00 0.00 0.00 0.00 0.00 0.00 0.00 0.00 0.00 0.00 0.00 0.00 0.00 0.00 0.00 0.00 0.00 0.00 0.00 0.00 0.00 0.00 0.00
0.00 0.00 0.00 0.00 0.00 0.00 0.00 0.00 0.00 0.00 0.00 0.00 0.00 0.00 0.00 0.00 0.00 0.00 0.00 0.02 0.11 0.22 0.15 0.05 0.00 0.00 0.00 0.00 0.00 0.00 0.00 0.00 0.00 0.00 0.00 0.00 0.00 0.00 0.00 0.00 0.00 0.00 0.00 0.00 0.00 0.00 0.00 0.00 0.00
0.00 0.00 0.00 0.00 0.00 0.00 0.00 0.00 0.00 0.00 0.00 0.00 0.00 0.00 0.00 0.00 0.00 0.00 0.00 0.00 0.03 0.18 0.20 0.07 0.03 0.00 0.00 0.00 0.00 0.00 0.00 0.00 0.00 0.00 0.00 0.00 0.00 0.00 0.00 0.00 0.00 0.00 0.00 0.00 0.00 0.00 0.00 0.00 0.00
0.00 0.00 0.00 0.00 0.00 0.00 0.00 0.00 0.00 0.00 0.00 0.00 0.00 0.00 0.00 0.00 0.00 0.00 0.00 0.00 0.00 0.13 0.28 0.14 0.13 0.01 0.00 0.00 0.00 0.00 0.00 0.00 0.00 0.00 0.00 0.00 0.00 0.00 0.00 0.00 0.00 0.00 0.00 0.00 0.00 0.00 0.00 0.00 0.00
0.00 0.00 0.00 0.00 0.00 0.00 0.00 0.00 0.00 0.00 0.00 0.00 0.00 0.00 0.00 0.00 0.00 0.00 0.00 0.00 0.00 0.02 0.15 0.20 0.11 0.06 0.00 0.00 0.00 0.00 0.00 0.00 0.00 0.00 0.00 0.00 0.00 0.00 0.00 0.00 0.00 0.00 0.00 0.00 0.00 0.00 0.00 0.00 0.00
0.00 0.00 0.00 0.00 0.00 0.00 0.00 0.00 0.00 0.00 0.00 0.00 0.00 0.00 0.00 0.00 0.00 0.00 0.00 0.00 0.00 0.00 0.04 0.11 0.09 0.06 0.01 0.00 0.00 0.00 0.00 0.00 0.00 0.00 0.00 0.00 0.00 0.00 0.00 0.00 0.00 0.00 0.00 0.00 0.00 0.00 0.00 0.00 0.00
0.00 0.00 0.00 0.00 0.00 0.00 0.00 0.00 0.00 0.00 0.00 0.00 0.00 0.00 0.00 0.00 0.00 0.00 0.00 0.00 0.00 0.00 0.01 0.10 0.11 0.03 0.02 0.01 0.00 0.00 0.00 0.00 0.00 0.00 0.00 0.00 0.00 0.00 0.00 0.00 0.00 0.00 0.00 0.00 0.00 0.00 0.00 0.00 0.00
0.00 0.00 0.00 0.00 0.00 0.00 0.00 0.00 0.00 0.00 0.00 0.00 0.00 0.00 0.00 0.00 0.00 0.00 0.00 0.00 0.00 0.00 0.01 0.10 0.23 0.13 0.05 0.01 0.00 0.00 0.00 0.00 0.00 0.00 0.00 0.00 0.00 0.00 0.00 0.00 0.00 0.00 0.00 0.00 0.00 0.00 0.00 0.00 0.00
0.00 0.00 0.00 0.00 0.00 0.00 0.00 0.00 0.00 0.00 0.00 0.00 0.00 0.00 0.00 0.00 0.00 0.00 0.00 0.00 0.00 0.00 0.00 0.03 0.13 0.17 0.07 0.02 0.00 0.00 0.00 0.00 0.00 0.00 0.00 0.00 0.00 0.00 0.00 0.00 0.00 0.00 0.00 0.00 0.00 0.00 0.00 0.00 0.00
0.00 0.00 0.00 0.00 0.00 0.00 0.00 0.00 0.00 0.00 0.00 0.00 0.00 0.00 0.00 0.00 0.00 0.00 0.00 0.00 0.00 0.00 0.01 0.06 0.09 0.13 0.11 0.06 0.05 0.02 0.00 0.00 0.00 0.00 0.00 0.00 0.00 0.00 0.00 0.00 0.00 0.00 0.00 0.00 0.00 0.00 0.00 0.00 0.00
0.00 0.00 0.00 0.00 0.01 0.01 0.02 0.01 0.00 0.00 0.00 0.00 0.00 0.00 0.00 0.00 0.00 0.00 0.00 0.00 0.01 0.02 0.01 0.04 0.10 0.13 0.15 0.13 0.07 0.02 0.02 0.00 0.00 0.00 0.00 0.00 0.00 0.00 0.00 0.00 0.00 0.00 0.00 0.00 0.00 0.00 0.00 0.00 0.00
0.00 0.00 0.01 0.01 0.01 0.01 0.00 0.02 0.01 0.00 0.00 0.00 0.00 0.00 0.00 0.00 0.00 0.00 0.00 0.00 0.01 0.05 0.04 0.02 0.03 0.07 0.13 0.16 0.09 0.04 0.07 0.07 0.00 0.00 0.00 0.00 0.00 0.00 0.00 0.00 0.00 0.00 0.00 0.00 0.00 0.01 0.01 0.01 0.00
0.00 0.00 0.00 0.00 0.01 0.01 0.00 0.00 0.01 0.01 0.00 0.00 0.00 0.00 0.00 0.00 0.00 0.00 0.00 0.01 0.02 0.05 0.03 0.01 0.01 0.01 0.06 0.09 0.09 0.08 0.08 0.11 0.10 0.01 0.00 0.00 0.00 0.00 0.00 0.00 0.00 0.01 0.02 0.03 0.04 0.03 0.02 0.03 0.03
0.00 0.01 0.00 0.00 0.01 0.01 0.00 0.00 0.00 0.00 0.00 0.00 0.01 0.00 0.00 0.00 0.00 0.00 0.00 0.02 0.04 0.02 0.05 0.06 0.02 0.00 0.02 0.04 0.05 0.04 0.05 0.05 0.12 0.08 0.04 0.00 0.00 0.01 0.01 0.02 0.03 0.03 0.02 0.01 0.01 0.00 0.00 0.01 0.01
0.00 0.01 0.00 0.00 0.01 0.03 0.00 0.00 0.00 0.00 0.00 0.00 0.00 0.00 0.00 0.00 0.00 0.00 0.01 0.02 0.01 0.01 0.04 0.07 0.05 0.01 0.01 0.02 0.01 0.01 0.00 0.01 0.03 0.09 0.12 0.10 0.06 0.06 0.05 0.03 0.01 0.00 0.01 0.02 0.01 0.00 0.00 0.01 0.01
0.00 0.00 0.00 0.00 0.00 0.00 0.00 0.00 0.00 0.00 0.00 0.00 0.00 0.00 0.00 0.00 0.00 0.00 0.01 0.01 0.00 0.00 0.01 0.01 0.05 0.01 0.00 0.00 0.00 0.00 0.00 0.00 0.01 0.03 0.06 0.13 0.12 0.10 0.07 0.03 0.01 0.00 0.00 0.01 0.01 0.02 0.03 0.03 0.02
0.00 0.00 0.00 0.00 0.00 0.01 0.00 0.00 0.00 0.00 0.00 0.00 0.00 0.00 0.00 0.00 0.00 0.01 0.01 0.01 0.01 0.00 0.00 0.00 0.01 0.00 0.00 0.00 0.01 0.02 0.00 0.00 0.02 0.01 0.01 0.03 0.05 0.04 0.02 0.01 0.01 0.01 0.02 0.04 0.05 0.06 0.03 0.01 0.00
0.00 0.00 0.00 0.00 0.00 0.00 0.00 0.00 0.00 0.00 0.00 0.00 0.00 0.00 0.00 0.00 0.00 0.01 0.01 0.02 0.03 0.00 0.00 0.00 0.00 0.00 0.00 0.00 0.00 0.02 0.03 0.01 0.03 0.01 0.01 0.02 0.05 0.06 0.04 0.04 0.04 0.04 0.04 0.04 0.05 0.05 0.03 0.01 0.00
0.00 0.00 0.00 0.00 0.00 0.00 0.00 0.00 0.00 0.00 0.00 0.00 0.00 0.00 0.00 0.00 0.00 0.00 0.01 0.03 0.05 0.01 0.01 0.00 0.00 0.00 0.00 0.00 0.00 0.00 0.00 0.01 0.05 0.04 0.03 0.02 0.03 0.07 0.06 0.04 0.04 0.03 0.01 0.01 0.01 0.00 0.00 0.00 0.00
MSLP
1015.64 1015.54 1015.42 1014.88 1014.28 1012.40 1008.46 1008.31 1008.37 1008.63 1008.88 1008.82 1008.61 1008.39 1007.51 1006.70 1005.72 1006.64 1007.54 1007.06 1007.11 1007.63 1008.51 1009.83 1010.53 1011.06 1011.73 1012.16 1012.43 1012.67 1013.01 1013.41 1013.78 1014.24 1014.70 1015.22 1015.55 1015.92 1016.27 1016.65 1016.90 1017.16 1017.29 1017.54 1017.73 1017.97 1018.24 1018.42 1018.58
1015.58 1015.71 1015.57 1014.79 1013.23 1010.89 1008.87 1009.23 1008.46 1009.22 1009.33 1009.89 1009.33 1008.82 1007.85 1006.87 1006.48 1006.56 1007.48 1007.60 1007.57 1008.05 1008.55 1009.33 1010.38 1010.90 1011.59 1012.19 1012.56 1012.79 1013.07 1013.44 1013.84 1014.26 1014.74 1015.18 1015.59 1016.06 1016.41 1016.74 1017.02 1017.25 1017.48 1017.77 1018.18 1018.39 1018.63 1018.89 1019.08
1015.95 1015.83 1015.12 1014.36 1012.80 1010.50 1009.26 1008.97 1008.82 1009.08 1009.74 1010.46 1009.71 1008.71 1007.80 1007.09 1007.05 1006.95 1007.71 1007.80 1007.91 1008.15 1008.68 1009.31 1010.24 1010.79 1011.45 1012.03 1012.52 1012.88 1013.18 1013.51 1013.91 1014.31 1014.74 1015.19 1015.70 1016.14 1016.54 1016.86 1017.17 1017.41 1017.78 1018.13 1018.53 1018.80 1019.02 1019.31 1019.51
1015.83 1015.99 1015.65 1014.11 1012.06 1011.08 1009.86 1009.35 1009.23 1010.49 1010.51 1010.64 1010.84 1009.62 1008.55 1007.68 1008.33 1008.94 1007.88 1007.88 1007.83 1008.55 1008.64 1009.66 1010.31 1010.75 1011.37 1011.82 1012.36 1012.78 1013.22 1013.56 1014.01 1014.38 1014.72 1015.17 1015.74 1016.19 1016.67 1017.08 1017.46 1017.79 1018.05 1018.51 1018.78 1019.11 1019.38 1019.65 1019.88
1016.02 1015.41 1014.32 1013.43 1012.15 1011.07 1010.49 1010.44 1010.30 1010.66 1010.84 1010.81 1011.47 1010.12 1010.00 1009.23 1009.99 1010.19 1010.23 1008.75 1007.89 1008.44 1008.78 1009.83 1010.39 1010.80 1011.34 1011.90 1012.33 1012.74 1013.13 1013.56 1014.01 1014.39 1014.74 1015.14 1015.75 1016.32 1016.79 1017.29 1017.72 1018.18 1018.38 1018.73 1019.01 1019.38 1019.69 1019.97 1020.20
1015.47 1015.09 1013.90 1012.49 1011.64 1011.14 1010.87 1011.01 1011.07 1010.68 1010.84 1011.10 1011.77 1011.55 1010.57 1010.30 1010.28 1010.56 1011.00 1010.66 1008.68 1008.37 1008.91 1009.91 1010.73 1011.17 1011.46 1011.88 1012.30 1012.75 1013.10 1013.55 1014.06 1014.43 1014.82 1015.33 1015.83 1016.48 1016.98 1017.55 1017.91 1018.37 1018.64 1018.91 1019.20 1019.60 1019.97 1020.27 1020.50
1015.00 1014.71 1013.39 1012.39 1011.48 1010.89 1010.90 1011.13 1011.06 1010.76 1010.60 1010.37 1011.44 1011.81 1010.64 1010.77 1010.84 1010.79 1010.81 1010.55 1009.73 1008.68 1008.97 1009.67 1010.44 1011.41 1011.96 1012.16 1012.34 1012.77 1013.12 1013.59 1014.01 1014.51 1015.01 1015.51 1016.09 1016.57 1017.05 1017.67 1018.18 1018.53 1018.95 1019.19 1019.53 1019.89 1020.32 1020.60 1020.86
1015.27 1014.65 1013.45 1012.31 1011.44 1010.67 1010.96 1011.25 1011.24 1010.87 1010.21 1010.34 1011.01 1011.12 1011.49 1009.95 1010.65 1010.71 1010.78 1010.39 1010.06 1009.23 1009.02 1009.74 1010.22 1011.13 1011.76 1012.32 1012.64 1012.89 1013.27 1013.68 1014.10 1014.69 1015.24 1015.81 1016.37 1016.83 1017.19 1017.71 1018.27 1018.74 1019.22 1019.53 1019.88 1020.24 1020.63 1021.01 1021.28
1015.67 1014.63 1012.98 1011.93 1011.68 1011.23 1011.57 1011.48 1011.11 1011.00 1010.82 1011.07 1011.19 1010.50 1010.12 1009.66 1010.31 1010.67 1010.80 1010.93 1010.51 1008.64 1009.06 1009.41 1010.12 1010.64 1011.29 1012.06 1012.79 1013.30 1013.62 1013.95 1014.39 1015.03 1015.56 1016.10 1016.35 1016.95 1017.46 1017.58 1018.43 1018.91 1019.37 1019.81 1020.20 1020.49 1020.91 1021.37 1021.66
1015.18 1013.94 1012.50 1012.24 1012.32 1012.02 1011.86 1011.77 1011.27 1011.08 1010.87 1011.10 1010.98 1010.92 1010.74 1009.97 1010.49 1010.76 1011.22 1011.38 1010.83 1008.61 1008.73 1009.38 1009.50 1010.40 1010.87 1011.78 1012.66 1013.01 1013.64 1013.94 1014.32 1015.06 1015.56 1015.83 1016.34 1016.66 1016.92 1018.10 1018.76 1019.16 1019.65 1020.00 1020.49 1020.77 1021.12 1021.13 1021.32
1014.54 1013.46 1012.76 1012.72 1012.71 1012.50 1012.26 1012.05 1011.73 1011.24 1010.36 1010.30 1010.33 1010.57 1010.15 1010.15 1010.17 1010.62 1010.96 1011.57 1012.51 1010.30 1007.96 1008.49 1008.87 1009.92 1010.64 1011.32 1012.10 1012.48 1013.31 1013.92 1014.44 1014.98 1015.40 1015.78 1016.18 1016.81 1017.32 1018.21 1018.78 1019.18 1019.73 1019.92 1020.44 1021.01 1020.50 1020.63 1020.80
1014.62 1013.82 1013.52 1013.21 1013.01 1012.93 1012.60 1012.44 1011.57 1011.24 1010.38 1010.36 1010.18 1010.09 1009.96 1009.85 1009.91 1010.08 1010.55 1010.64 1012.05 1011.38 1009.52 1008.09 1008.52 1009.32 1010.21 1010.65 1011.46 1011.96 1012.79 1013.71 1014.22 1014.82 1015.13 1015.66 1016.23 1016.69 1016.98 1017.92 1018.10 1018.63 1018.94 1019.49 1019.94 1020.18 1020.44 1020.65 1020.79
1014.68 1013.99 1013.82 1013.59 1013.57 1013.28 1012.97 1012.25 1011.59 1010.36 1010.47 1010.22 1010.12 1009.92 1009.41 1009.57 1009.22 1009.86 1010.18 1010.08 1010.93 1010.22 1008.80 1007.58 1008.15 1008.94 1009.77 1010.33 1011.12 1011.82 1012.46 1013.32 1013.87 1014.43 1014.95 1015.38 1015.93 1016.22 1016.69 1018.09 1017.94 1018.37 1018.71 1019.32 1019.67 1020.03 1020.31 1020.52 1020.75
1014.78 1014.65 1014.09 1013.76 1013.43 1013.19 1012.75 1011.76 1011.42 1009.49 1010.32 1009.88 1009.48 1009.28 1008.93 1009.40 1009.65 1009.60 1009.88 1009.98 1010.81 1010.38 1009.93 1008.12 1008.06 1009.06 1009.42 1010.27 1010.84 1011.53 1012.35 1012.97 1013.67 1014.26 1014.81 1015.36 1016.05 1016.37 1016.71 1018.37 1018.25 1018.40 1018.77 1019.21 1019.50 1019.79 1020.16 1020.43 1020.60
1015.46 1014.91 1014.05 1013.48 1012.81 1012.65 1012.56 1011.07 1009.74 1009.39 1009.50 1009.22 1008.73 1008.55 1008.49 1008.97 1009.33 1009.29 1009.73 1010.08 1010.55 1010.40 1010.82 1007.43 1008.06 1008.50 1008.65 1010.58 1010.79 1011.21 1012.18 1012.83 1013.48 1014.10 1014.65 1015.53 1016.58 1017.03 1017.64 1018.40 1018.30 1018.39 1018.73 1019.19 1019.54 1019.90 1020.20 1020.39 1020.67
1015.77 1014.94 1013.89 1012.64 1012.56 1012.26 1012.49 1009.73 1008.90 1008.59 1008.15 1007.99 1007.90 1007.66 1007.88 1008.28 1008.72 1009.20 1009.64 1009.69 1009.55 1010.83 1010.42 1009.00 1008.88 1008.13 1009.16 1010.22 1010.75 1011.19 1012.00 1012.67 1013.29 1013.93 1014.53 1015.44 1016.32 1016.90 1017.51 1017.81 1018.19 1018.36 1018.81 1019.22 1019.69 1020.05 1020.25 1020.46 1020.75
1015.44 1014.34 1013.75 1012.94 1012.38 1012.11 1011.79 1009.87 1008.96 1008.39 1007.48 1007.23 1007.12 1007.32 1007.33 1007.25 1007.99 1008.73 1009.33 1009.74 1009.53 1011.03 1009.91 1009.86 1009.29 1007.60 1008.74 1010.00 1010.84 1011.33 1011.81 1012.33 1013.03 1013.81 1014.43 1015.44 1015.86 1016.44 1017.00 1017.31 1017.76 1018.42 1018.94 1019.30 1019.55 1019.91 1020.26 1020.47 1020.76
1014.98 1014.63 1013.65 1012.97 1012.44 1012.02 1011.25 1010.02 1009.39 1008.50 1007.84 1006.84 1007.17 1006.93 1007.09 1006.79 1007.03 1007.94 1008.52 1008.99 1009.60 1008.54 1008.74 1009.29 1009.41 1007.76 1008.55 1009.87 1011.09 1011.53 1011.89 1012.27 1012.90 1013.42 1014.11 1015.10 1015.56 1016.14 1016.66 1017.21 1017.81 1018.46 1018.83 1019.38 1019.58 1019.91 1020.28 1020.32 1020.52
1015.85 1015.47 1014.40 1013.33 1012.53 1012.05 1010.77 1009.38 1008.38 1007.57 1007.32 1006.98 1006.48 1006.58 1006.21 1006.22 1006.79 1007.65 1007.98 1007.74 1008.39 1008.19 1008.30 1009.16 1009.09 1007.98 1008.57 1009.81 1010.67 1011.31 1011.42 1011.87 1012.70 1013.11 1013.99 1014.76 1015.31 1015.99 1016.61 1017.24 1017.86 1018.30 1018.62 1019.18 1019.64 1019.92 1020.20 1020.58 1020.82
1015.65 1015.00 1013.85 1013.07 1012.17 1011.81 1010.18 1008.46 1007.32 1006.32 1006.06 1006.14 1005.84 1005.77 1006.02 1006.10 1006.43 1007.21 1007.70 1007.92 1007.37 1007.47 1006.80 1007.26 1006.77 1009.13 1008.66 1009.34 1010.43 1011.11 1011.12 1011.95 1012.70 1013.24 1014.02 1014.84 1015.38 1016.14 1016.70 1017.16 1017.74 1018.30 1018.57 1019.03 1019.47 1019.99 1020.19 1020.26 1020.68
1015.13 1014.52 1013.71 1013.24 1012.48 1011.24 1009.64 1007.70 1005.72 1004.59 1005.05 1005.42 1005.87 1005.97 1005.43 1005.71 1006.11 1006.89 1007.32 1007.19 1007.06 1006.78 1007.29 1006.73 1007.92 1008.57 1008.48 1009.31 1010.46 1011.25 1011.61 1012.44 1013.00 1013.49 1013.81 1014.54 1015.26 1016.09 1016.69 1017.24 1017.67 1018.21 1018.67 1019.09 1019.50 1019.79 1020.03 1020.18 1020.60
1014.20 1013.94 1013.51 1013.14 1012.55 1010.53 1009.48 1006.54 1004.04 1003.73 1004.34 1004.85 1005.18 1005.42 1005.30 1005.30 1005.71 1006.06 1006.27 1005.90 1006.25 1007.09 1007.18 1006.68 1007.33 1006.28 1007.93 1008.78 1010.01 1010.35 1011.06 1011.64 1012.40 1012.98 1013.70 1014.30 1014.93 1015.77 1016.43 1017.07 1017.51 1017.99 1018.60 1019.07 1019.42 1019.72 1020.03 1020.14 1020.18
1013.85 1013.73 1013.24 1012.87 1012.28 1011.29 1008.78 1008.24 1004.34 1004.53 1004.52 1004.32 1004.66 1004.66 1004.67 1004.98 1005.57 1005.88 1005.61 1005.28 1005.34 1005.51 1005.66 1006.44 1007.39 1007.51 1007.50 1008.60 1009.59 1010.23 1011.20 1011.69 1012.34 1013.04 1013.61 1014.36 1014.78 1015.43 1016.18 1016.93 1017.45 1017.98 1018.37 1018.86 1019.21 1019.70 1019.99 1020.14 1020.63
1013.93 1013.76 1013.00 1012.33 1011.48 1009.75 1007.36 1007.63 1005.39 1005.37 1005.31 1004.36 1004.18 1004.29 1004.40 1004.89 1004.83 1005.32 1005.42 1004.74 1004.31 1005.06 1005.77 1005.76 1006.87 1008.66 1007.72 1008.16 1009.22 1009.86 1010.67 1011.51 1012.20 1012.87 1013.22 1014.03 1014.68 1015.33 1015.93 1016.67 1017.13 1017.70 1018.24 1018.73 1019.17 1019.67 1020.02 1020.27 1020.69
1014.07 1013.79 1012.16 1010.59 1009.71 1007.92 1006.94 1007.76 1007.23 1006.44 1005.81 1004.35 1003.83 1003.95 1004.55 1004.66 1005.23 1005.16 1004.96 1005.40 1005.51 1005.09 1006.15 1005.91 1007.61 1007.62 1008.68 1010.00 1009.27 1010.05 1010.66 1011.47 1012.01 1012.42 1012.91 1013.71 1014.46 1015.10 1015.80 1016.42 1017.03 1017.80 1018.20 1018.53 1019.14 1019.64 1020.01 1020.26 1020.70
1013.14 1012.82 1011.64 1009.64 1007.79 1006.67 1006.61 1006.99 1007.43 1006.91 1005.74 1004.78 1004.12 1004.33 1004.67 1004.99 1005.50 1005.04 1005.11 1005.04 1004.67 1004.90 1005.45 1006.50 1007.66 1008.45 1008.58 1009.00 1008.92 1009.49 1010.89 1011.86 1011.92 1012.50 1012.93 1013.39 1014.29 1014.96 1015.67 1016.32 1016.93 1017.52 1018.04 1018.62 1019.04 1019.63 1019.88 1020.15 1020.58
1012.33 1011.99 1010.72 1009.37 1007.57 1006.60 1007.16 1007.25 1007.49 1006.47 1005.47 1005.28 1005.14 1004.78 1005.39 1006.15 1005.43 1005.41 1005.34 1004.83 1004.91 1004.79 1005.19 1006.10 1007.11 1007.66 1008.35 1009.11 1008.91 1010.57 1011.83 1011.98 1011.99 1011.88 1012.42 1013.43 1014.19 1015.05 1015.70 1016.45 1017.11 1017.59 1018.05 1018.48 1018.87 1019.28 1019.79 1019.74 1020.69
1012.23 1011.36 1010.19 1008.84 1007.52 1006.86 1007.26 1007.34 1008.22 1007.46 1007.30 1006.90 1006.59 1006.14 1006.10 1006.53 1006.25 1006.12 1005.93 1005.65 1006.27 1006.14 1006.27 1007.13 1007.45 1007.52 1008.34 1008.51 1009.60 1010.30 1010.74 1011.59 1011.93 1012.66 1012.81 1012.75 1014.23 1015.13 1015.73 1016.52 1017.06 1017.70 1018.18 1018.48 1018.87 1019.01 1019.60 1020.22 1020.38
1011.74 1010.84 1009.70 1009.14 1008.51 1007.72 1007.65 1008.98 1009.20 1008.51 1008.23 1007.75 1007.94 1007.33 1007.08 1007.04 1007.04 1007.06 1007.04 1007.01 1006.88 1006.83 1007.32 1007.59 1007.98 1008.49 1009.25 1010.15 1010.12 1010.21 1010.69 1011.62 1011.84 1012.70 1013.39 1013.25 1014.26 1014.68 1015.26 1016.37 1017.16 1017.86 1017.98 1018.40 1018.54 1019.10 1019.83 1020.12 1020.40
1012.36 1011.12 1009.96 1009.16 1009.23 1008.93 1008.31 1009.63 1009.56 1008.83 1008.65 1008.93 1008.71 1008.51 1008.31 1008.23 1008.14 1008.22 1007.57 1007.57 1008.09 1008.52 1008.52 1008.72 1008.78 1009.22 1009.45 1010.00 1009.98 1010.28 1010.82 1011.39 1012.03 1012.68 1013.22 1013.82 1013.82 1014.57 1015.26 1016.29 1016.85 1017.35 1017.78 1018.15 1018.72 1019.22 1019.84 1020.20 1020.64
Thickness
5651 5652 5651 5653 5643 5654 5693 5690 5698 5685 5686 5701 5706 5703 5710 5727 5732 5718 5756 5771 5777 5778 5777 5769 5768 5767 5765 5764 5764 5765 5764 5763 5762 5759 5757 5754 5751 5749 5746 5743 5742 5739 5739 5738 5735 5733 5731 5730 5729
5642 5640 5638 5636 5637 5650 5672 5676 5677 5671 5678 5681 5687 5691 5697 5705 5732 5739 5743 5757 5766 5767 5769 5767 5764 5764 5762 5759 5759 5760 5761 5760 5759 5757 5754 5752 5749 5746 5744 5742 5740 5738 5736 5735 5732 5730 5728 5726 5724
5628 5628 5626 5622 5629 5644 5657 5665 5666 5671 5667 5660 5664 5684 5692 5698 5718 5727 5737 5746 5754 5759 5761 5761 5759 5760 5759 5758 5757 5757 5757 5757 5755 5754 5752 5750 5746 5743 5741 5740 5738 5736 5733 5732 5728 5726 5725 5722 5720
5617 5614 5613 5611 5622 5638 5650 5652 5653 5638 5643 5646 5641 5650 5676 5697 5691 5700 5727 5736 5745 5747 5753 5752 5752 5754 5754 5755 5755 5754 5753 5753 5752 5751 5750 5747 5744 5741 5738 5737 5735 5733 5730 5728 5726 5723 5721 5718 5717
5605 5605 5604 5604 5613 5624 5632 5625 5626 5617 5621 5623 5617 5630 5636 5664 5673 5686 5695 5716 5733 5738 5743 5743 5745 5746 5747 5749 5750 5750 5750 5750 5749 5748 5748 5746 5741 5737 5735 5732 5731 5727 5727 5724 5723 5720 5718 5715 5713
5592 5594 5590 5600 5604 5606 5606 5604 5600 5600 5603 5602 5591 5598 5621 5643 5656 5669 5677 5688 5719 5727 5732 5732 5733 5735 5740 5742 5744 5745 5746 5746 5745 5745 5744 5742 5739 5734 5731 5728 5727 5724 5723 5721 5720 5717 5714 5712 5710
5583 5579 5582 5589 5590 5587 5587 5589 5579 5581 5585 5592 5585 5573 5607 5626 5641 5657 5670 5683 5700 5717 5723 5726 5727 5726 5727 5733 5738 5740 5741 5741 5741 5740 5739 5737 5734 5731 5728 5725 5722 5720 5719 5718 5715 5713 5709 5707 5705
5568 5565 5567 5573 5572 5574 5574 5570 5568 5570 5577 5583 5571 5560 5577 5618 5631 5645 5661 5677 5693 5706 5715 5715 5720 5721 5722 5724 5729 5732 5735 5736 5736 5734 5732 5732 5729 5727 5726 5722 5718 5716 5713 5713 5710 5708 5705 5702 5700
5551 5547 5553 5563 5556 5558 5558 5553 5563 5567 5562 5557 5561 5578 5602 5621 5627 5633 5647 5660 5676 5706 5707 5706 5712 5717 5718 5719 5721 5722 5726 5729 5729 5727 5726 5724 5724 5722 5720 5720 5715 5712 5709 5707 5705 5704 5701 5698 5696
5537 5539 5548 5549 5542 5541 5544 5546 5553 5552 5550 5548 5558 5575 5588 5605 5612 5625 5633 5646 5662 5692 5703 5705 5711 5713 5715 5714 5714 5717 5718 5722 5723 5721 5720 5721 5720 5719 5720 5713 5710 5707 5704 5703 5700 5700 5697 5697 5694
5528 5531 5536 5533 5531 5534 5535 5538 5544 5542 5549 5552 5555 5562 5579 5587 5597 5613 5626 5635 5636 5658 5703 5706 5711 5708 5710 5714 5714 5717 5715 5716 5717 5717 5717 5717 5717 5714 5712 5708 5706 5704 5701 5700 5697 5694 5697 5697 5696
5511 5519 5518 5519 5522 5521 5524 5528 5535 5537 5547 5549 5555 5564 5571 5581 5590 5609 5617 5631 5625 5629 5669 5697 5708 5704 5708 5713 5714 5716 5715 5713 5714 5714 5715 5714 5713 5711 5710 5705 5706 5705 5703 5700 5697 5696 5695 5694 5694
5500 5508 5507 5508 5509 5511 5515 5522 5527 5539 5540 5543 5547 5557 5572 5582 5600 5607 5611 5619 5624 5638 5668 5695 5701 5705 5707 5711 5710 5711 5712 5710 5711 5711 5711 5712 5711 5711 5709 5701 5703 5702 5702 5698 5696 5695 5693 5692 5691
5495 5493 5497 5500 5503 5505 5507 5519 5522 5544 5532 5537 5547 5555 5569 5577 5588 5599 5604 5617 5620 5634 5631 5678 5694 5697 5704 5704 5707 5708 5707 5707 5707 5707 5707 5707 5704 5705 5705 5695 5697 5697 5697 5695 5694 5694 5691 5690 5689
5480 5481 5492 5497 5502 5502 5503 5517 5528 5536 5534 5536 5547 5553 5561 5570 5583 5590 5596 5610 5615 5620 5624 5680 5688 5694 5702 5692 5699 5704 5703 5703 5703 5704 5704 5701 5696 5695 5693 5690 5692 5693 5692 5690 5689 5688 5687 5687 5686
5467 5475 5481 5500 5496 5498 5494 5522 5534 5539 5542 5542 5546 5553 5559 5567 5578 5580 5586 5598 5607 5605 5629 5650 5672 5690 5690 5688 5692 5696 5697 5699 5699 5699 5700 5696 5693 5691 5689 5689 5688 5688 5687 5686 5684 5682 5683 5683 5681
5463 5470 5474 5484 5491 5490 5491 5511 5526 5533 5542 5544 5547 5547 5555 5569 5574 5577 5585 5591 5605 5603 5616 5633 5652 5681 5685 5683 5686 5688 5691 5694 5694 5694 5694 5691 5691 5689 5687 5688 5687 5683 5681 5680 5681 5679 5678 5678 5676
5454 5460 5472 5471 5482 5480 5484 5498 5510 5521 5531 5543 5539 5544 5552 5568 5572 5576 5583 5592 5597 5617 5624 5634 5646 5677 5680 5678 5674 5677 5682 5688 5690 5693 5692 5687 5688 5687 5684 5683 5681 5678 5678 5675 5676 5676 5675 5676 5675
5430 5423 5430 5457 5468 5461 5476 5493 5510 5522 5528 5534 5541 5541 5559 5570 5566 5570 5578 5596 5599 5618 5628 5631 5642 5668 5673 5670 5670 5673 5683 5689 5689 5692 5688 5685 5684 5682 5680 5678 5676 5676 5676 5671 5670 5671 5670 5668 5668
5419 5421 5436 5449 5458 5449 5475 5491 5511 5524 5531 5534 5540 5549 5555 5561 5565 5572 5577 5587 5604 5618 5638 5644 5648 5646 5667 5671 5672 5673 5681 5683 5683 5683 5680 5677 5677 5674 5674 5675 5673 5669 5670 5669 5668 5664 5664 5665 5664
5415 5418 5425 5423 5434 5452 5472 5489 5516 5534 5532 5533 5534 5541 5556 5557 5560 5571 5578 5591 5608 5622 5633 5639 5646 5645 5659 5666 5661 5661 5666 5666 5669 5673 5677 5675 5673 5670 5669 5666 5664 5662 5661 5662 5662 5661 5660 5659 5659
5418 5429 5427 5419 5417 5445 5465 5492 5528 5535 5532 5532 5533 5541 5548 5555 5561 5572 5586 5605 5617 5619 5637 5643 5638 5661 5656 5662 5656 5665 5669 5671 5672 5674 5673 5673 5670 5666 5664 5661 5660 5659 5657 5656 5655 5656 5656 5658 5657
5425 5429 5429 5423 5421 5423 5467 5459 5517 5519 5522 5530 5535 5543 5551 5554 5561 5575 5591 5608 5622 5632 5637 5633 5639 5648 5665 5658 5657 5663 5661 5664 5664 5664 5665 5662 5663 5661 5659 5657 5656 5655 5654 5652 5652 5651 5650 5652 5649
5434 5425 5427 5427 5432 5450 5486 5480 5507 5512 5513 5531 5540 5548 5551 5555 5569 5581 5591 5612 5630 5629 5630 5641 5628 5630 5651 5657 5659 5662 5661 5658 5659 5658 5660 5658 5657 5655 5654 5652 5651 5650 5648 5646 5645 5644 5644 5644 5643
5422 5419 5444 5464 5469 5489 5490 5478 5491 5493 5506 5534 5548 5553 5553 5567 5572 5585 5599 5610 5617 5630 5627 5635 5624 5633 5639 5630 5651 5652 5653 5654 5655 5656 5655 5651 5650 5650 5649 5648 5646 5642 5640 5640 5638 5636 5636 5637 5634
5439 5438 5455 5483 5508 5517 5509 5508 5502 5497 5524 5540 5554 5556 5561 5567 5574 5589 5603 5612 5627 5632 5633 5631 5625 5622 5631 5634 5643 5644 5642 5644 5650 5645 5646 5646 5642 5643 5642 5640 5637 5636 5635 5631 5630 5629 5631 5631 5628
5457 5453 5461 5478 5502 5524 5503 5503 5489 5516 5531 5537 5548 5560 5563 5564 5580 5593 5604 5619 5623 5633 5638 5636 5633 5630 5629 5631 5641 5632 5630 5630 5638 5638 5642 5637 5635 5632 5631 5629 5628 5626 5625 5625 5625 5625 5626 5627 5619
5454 5462 5487 5496 5519 5523 5516 5514 5500 5512 5515 5527 5536 5554 5562 5570 5577 5588 5601 5613 5615 5623 5628 5627 5629 5632 5629 5633 5629 5632 5636 5631 5630 5626 5628 5633 5628 5623 5623 5621 5620 5619 5617 5617 5618 5622 5620 5616 5616
5473 5482 5495 5495 5501 5523 5525 5508 5489 5507 5511 5521 5529 5547 5561 5570 5580 5586 5595 5600 5609 5617 5620 5625 5625 5623 5620 5615 5620 5625 5625 5619 5624 5618 5616 5626 5617 5621 5621 5618 5616 5614 5616 5613 5614 5614 5609 5608 5612
5460 5480 5496 5514 5506 5500 5517 5503 5502 5517 5521 5522 5535 5536 5553 5565 5567 5579 5591 5599 5600 5601 5605 5610 5617 5619 5622 5620 5623 5621 5619 5620 5620 5617 5620 5619 5620 5618 5618 5614 5613 5609 5613 5611 5609 5605 5603 5603 5601